Location: Pasadena, ca
(34.1243°N, 118.1037°W)
Time: 18:03:04
(UTC-08:00)

N. Korean satellite - Pass Details

Date: 15 November 2017
Orbit: 460 x 514 km, 97.2° (Epoch: 22 November)

Event Time Altitude Azimuth Distance (km) Brightness Sun altitude
Rises 18:29:32 0° 190° (S) 2,470 10.4 -21.0°
Reaches altitude 10° 18:31:45 10° 202° (SSW) 1,603 9.6 -21.4°
Maximum altitude 18:34:45 28° 263° (W) 900 8.6 -22.0°
Drops below altitude 10° 18:37:48 10° 324° (NW) 1,629 9.5 -22.7°
Sets 18:40:04 0° 336° (NNW) 2,518 10.4 -23.1°
